Regional Weather Roundup
Issued by NWS Northern Indiana

Home | Current Version | Previous Version | Graphics & Text | Print | Product List | Glossary On
Versions: 1 2 3 4 5 6 7 8 9 10 11 12 13 14 15 16 17 18 19 20 21 22 23 24 25 26 27 28 29 30 31 32 33 34 35 36 37 38 39 40 41 42 43 44 45 46 47 48 49 50
000
ASUS43 KIWX 310710
RWRIWX

KIWX WEATHER ROUNDUP
NATIONAL WEATHER SERVICE NORTHERN INDIANA
300 AM EDT MON AUG 31 2015

NOTE: "FAIR" INDICATES FEW OR NO CLOUDS BELOW 12,000 FEET WITH NO
SIGNIFICANT WEATHER AND/OR OBSTRUCTIONS TO VISIBILITY.

* THESE STATIONS ARE NOT UNDER NWS QUALITY CONTROL. THEY ALSO MAY NOT
  REPORT WEATHER SUCH AS PRECIPITATION OR FOG.

INZ001>027-310800-
NORTHERN INDIANA

CITY           SKY/WX    TMP DP  RH WIND       PRES   REMARKS
GARY*          FOG       62  61  94 CALM      30.05S VSB 1/2
VALPARAISO     FOG       63  62  97 CALM      30.05S VSB 1/2
MICHIGAN CITY* MOCLDY    61  61 100 CALM      30.05S FOG
LAPORTE*       FOG      N/A N/A N/A CALM      30.06S VSB 1/4
KNOX*            N/A     59  59 100 CALM      30.03F VSB 1/4
SOUTH BEND     PTCLDY    62  60  93 CALM      30.06S
GOSHEN         FOG       63  62  97 CALM      30.05S VSB 1/4
MONTICELLO*    CLEAR     69  69 100 CALM      30.03S FOG
LOGANSPORT*    PTCLDY    63  61  94 S3        30.05F FOG
ROCHESTER*     CLOUDY    66  66 100 CALM      30.05S FOG
WARSAW*        FOG       63  63 100 CALM      30.05F VSB<1/4
ANGOLA*        CLOUDY    64  63  94 CALM      30.05F VSB 0
FORT WAYNE     PTCLDY    66  64  93 S3        30.06S FOG
HUNTINGTON*    CLEAR     65  62  89 CALM      30.05S FOG
PERU/GRISSOM   CLEAR     67  65  93 S3        30.04F
MARION*        CLEAR     64  59  82 CALM      30.06F

$$
INZ028>050-310800-
CENTRAL INDIANA

CITY           SKY/WX    TMP DP  RH WIND       PRES   REMARKS
LAFAYETTE      CLEAR     67  65  93 CALM      30.03F
KOKOMO*        CLEAR     64  61  88 S3        30.05F
MUNCIE*        CLEAR     69  66  90 SW5       30.06F
INDIANAPOLIS   CLEAR     70  66  87 S5        30.05S

$$
MIZ043>046-050>051-056>058-064>065-071>073-077>080-310800-
SOUTHWEST LOWER MICHIGAN

CITY           SKY/WX    TMP DP  RH WIND       PRES   REMARKS
BATTLE CREEK   PTCLDY    61  59  93 S3        30.05F FOG
BENTON HARBOR  PTCLDY    59  58  96 CALM      30.04S FOG
COLDWATER*     FOG       62  62 100 CALM      30.06F VSB<1/4
HILLSDALE*     FOG       62  62 100 CALM      30.06F VSB<1/4
HOLLAND        FOG       64  60  87 CALM      30.05S VSB 1/4
GRAND RAPIDS   CLOUDY    66  64  93 SW6       30.05R FOG
KALAMAZOO      FOG       58  56  93 CALM      30.05F VSB 3/4
STURGIS*       FOG       63  63 100 CALM      30.05F VSB 1/4
THREE RIVERS*  FOG       61  61 100 CALM      30.06S VSB 1/4

$$
OHZ001>008-015>018-024>025-310800-
NORTHWEST OHIO

CITY           SKY/WX    TMP DP  RH WIND       PRES   REMARKS
WAUSEON*       FOG       64  64 100 CALM      30.05S VSB<1/4
DEFIANCE       FOG       67  66  97 CALM      30.05S VSB 1/2
FINDLAY        CLEAR     69  65  86 SW3       30.05S
TOLEDO EXPRESS CLEAR     66  65  96 CALM      30.03F
TOLEDO METCALF CLEAR     67  64  90 S5        30.04F
LIMA           CLEAR     67  65  93 S3        30.06F

$$
AND FOR LAKE MICHIGAN COASTAL AND OPEN LAKE BUOY OBSERVATIONS

STATION/POSITION TEMP    WIND        PRES    VSBY  WAVE
                 AIR SEA DIR/SP/G                  HT/PER
                 (F)     (DEG/KT/KT) (MB)    (MI)  (FT/S)
MICHIGAN CITY     65      50/  3/  4   N/A
BURNS HARBOR      68      30/  2/  3 1017.6S
SAINT JOSEPH      64     100/  2/  3 1017.6F
SOUTH LAKE BUOY   68 68  180/  8/  8 1016.5F         0
4 MI NW BRIDGMAN  68 71  170/  6/  6   N/A           0
MICHIGAN CITY     68 71  130/  4/  6   N/A           1

$$
&&



USA.gov is the U.S. government's official web portal to all federal, state and local government web resources and services.